This is the latest recevied weather packets stored in our database for station/object N8HON. If no packets are shown the sender has not sent any weather packets the latest 10 day(s).
| Time | Temp. | Humidity | Pressure | Rain* | Wind** | Luminosity | Snow |
|---|---|---|---|---|---|---|---|
| 1778237535 | 3.33° C | 77% | 1014.1 hPa | 0 mm | - | 23 W/m² | - |
| 1778237232 | 3.33° C | 78% | 1014 hPa | 0 mm | - | 19 W/m² | - |
| 1778236929 | 2.78° C | 79% | 1013.9 hPa | 0 mm | - | 18 W/m² | - |
| 1778236626 | 2.78° C | 80% | 1014 hPa | 0 mm | - | 14 W/m² | - |
| 1778236323 | 2.22° C | 81% | 1013.9 hPa | 0 mm | - | 10 W/m² | - |
| 1778236020 | 2.22° C | 81% | 1014.2 hPa | 0 mm | - | 7 W/m² | - |
| 1778235719 | 2.22° C | 81% | 1013.7 hPa | 0 mm | - | 5 W/m² | - |
| 1778235415 | 2.22° C | 81% | 1013.8 hPa | 0 mm | - | 3 W/m² | - |
| 1778235113 | 2.78° C | 79% | 1013.7 hPa | 0 mm | - | 1 W/m² | - |
| 1778234810 | 2.22° C | 81% | 1013.9 hPa | 0 mm | - | 0 W/m² | - |
| 1778234508 | 2.78° C | 80% | 1013.6 hPa | 0 mm | - | 0 W/m² | - |
| 1778234204 | 2.78° C | 79% | 1013.4 hPa | 0 mm | - | 0 W/m² | - |
| 1778233902 | 2.22° C | 80% | 1013.3 hPa | 0 mm | - | 0 W/m² | - |
| 1778233598 | 2.22° C | 81% | 1013.3 hPa | 0 mm | - | 0 W/m² | - |
| 1778233295 | 2.78° C | 80% | 1013.4 hPa | 0 mm | - | 0 W/m² | - |
| 1778232993 | 2.78° C | 78% | 1013.8 hPa | 0 mm | - | 0 W/m² | - |
| 1778232690 | 3.33° C | 77% | 1013.9 hPa | 0 mm | - | 0 W/m² | - |
| 1778232387 | 3.33° C | 76% | 1013.7 hPa | 0 mm | - | 0 W/m² | - |
| 1778232086 | 3.33° C | 76% | 1013.4 hPa | 0 mm | - | 0 W/m² | - |
| 1778231782 | 3.33° C | 75% | 1013.7 hPa | 0 mm | - | 0 W/m² | - |
| 1778231480 | 3.33° C | 76% | 1013.4 hPa | 0 mm | - | 0 W/m² | - |
| 1778231178 | 3.33° C | 75% | 1013.6 hPa | 0 mm | - | 0 W/m² | - |
| 1778230875 | 3.33° C | 75% | 1013.4 hPa | 0 mm | - | 0 W/m² | - |
| 1778230570 | 3.89° C | 75% | 1013.3 hPa | 0 mm | - | 0 W/m² | - |
| 1778230268 | 3.89° C | 75% | 1013.4 hPa | 0 mm | - | 0 W/m² | - |
* Rain latest hour (hover to see other rain measurements)
** Current wind speed in m/s (hover to see current wind gust speed)